Location: Newark
(34.9500°N, 139.9667°E)
Time: 05:20:30
(UTC+00:00)

Vanguard 2 Rocket - Pass Details

Date: 17 December 2019
Orbit: 554 x 3326 km, 32.9° (Epoch: 27 January)

Event Time Altitude Azimuth Distance (km) Brightness Sun altitude
Rises 04:40:44 0° 222° (SW) 7,149 12.8 24.6°
Reaches altitude 10° 04:45:43 10° 217° (SW) 6,242 13.1 24.1°
Maximum altitude 05:04:33 48° 151° (SSE) 3,684 10.5 21.9°
Drops below altitude 10° 05:19:04 10° 83° (E) 4,946 10.3 20.1°
Sets 05:22:26 0° 78° (ENE) 5,630 10.5 19.6°
